OSCAR 7 (AO-7) 1 07530U 74089B 26162.65147907 -.00000028 00000+0 11383-3 0 9998 2 07530 101.9901 175.8403 0012512 140.4232 346.6372 12.53697989359820 PHASE 3B (AO-10) 1 14129U 83058B 26158.17238870 -.00000194 00000+0 00000+0 0 9992 2 14129 25.9048 221.2242 6014266 112.9115 319.2048 2.05872980295281 UOSAT 2 (UO-11) 1 14781U 84021B 26162.85173535 .00001184 00000+0 12615-3 0 9991 2 14781 97.8055 128.4861 0007136 190.5105 169.5965 14.90770083256334 LUSAT (LO-19) 1 20442U 90005G 26162.94930685 .00000099 00000+0 52115-4 0 9992 2 20442 98.8851 184.6105 0010842 217.2541 142.7892 14.34121586901643 EYESAT A (AO-27) 1 22825U 93061C 26162.75558255 .00000071 00000+0 43872-4 0 9992 2 22825 98.6880 230.1710 0009458 113.7867 246.4308 14.30940790706224 ITAMSAT (IO-26) 1 22826U 93061D 26162.73661513 .00000073 00000+0 44441-4 0 9998 2 22826 98.6829 230.0688 0010076 99.1890 261.0433 14.31367533706537 RADIO ROSTO (RS15) 1 23439U 94085A 26162.88332484 -.00000050 00000+0 -22282-3 0 9999 2 23439 64.8187 311.7941 0155781 4.8570 355.3824 11.27583599295303 JAS-2 (FO-29) 1 24278U 96046B 26162.54420303 .00000014 00000+0 46335-4 0 9995 2 24278 98.5245 12.1894 0350827 111.0367 252.8667 13.53273928472403 TECHSAT 1B (GO-32) 1 25397U 98043D 26162.93664952 .00000044 00000+0 39144-4 0 9993 2 25397 99.0065 155.5629 0000754 175.7521 184.3664 14.24427405450581 ISS (ZARYA) 1 25544U 98067A 26162.83551937 .00007284 00000+0 13937-3 0 9994 2 25544 51.6334 326.5798 0004934 175.2433 184.8603 15.49179015570924 PCSAT (NO-44) 1 26931U 01043C 26162.64152601 .00000072 00000+0 57659-4 0 9995 2 26931 67.0509 258.6152 0006099 264.4327 95.6080 14.31954152289654 SAUDISAT 1C (SO-50) 1 27607U 02058C 26162.55839360 .00000916 00000+0 12536-3 0 9998 2 27607 64.5506 146.4007 0075403 263.5157 95.7360 14.83034770263626 CUTE-1 (CO-55) 1 27844U 03031E 26162.97931317 .00000243 00000+0 12418-3 0 9996 2 27844 98.6735 171.6035 0009162 193.3973 166.6964 14.24332546190935 CUBESAT XI-IV (CO-57) 1 27848U 03031J 26162.96515925 .00000209 00000+0 11102-3 0 9993 2 27848 98.6768 171.3067 0008710 213.1482 146.9152 14.23618048190631 MOZHAETS 4 (RS22) 1 27939U 03042A 26162.99412738 .00001144 00000+0 18446-3 0 9994 2 27939 98.3473 347.2069 0010049 288.3996 190.6956 14.73459694214786 CUBESAT XI-V 1 28895U 05043F 26162.96687193 .00001171 00000+0 19211-3 0 9996 2 28895 98.2978 318.4792 0013339 218.0052 142.0215 14.72617350100987 CUTE-1.7+APD II (CO-65) 1 32785U 08021C 26162.94544593 .00004770 00000+0 30225-3 0 9998 2 32785 97.8271 144.2548 0010282 54.9018 305.3173 15.09404820984409 SEEDS II (CO-66) 1 32791U 08021J 26162.97785709 .00016592 00000+0 52956-3 0 9994 2 32791 97.7516 160.6273 0001854 21.0247 339.1070 15.32573857986493 YUBILEINY (RS30) 1 32953U 08025A 26162.94786781 -.00000004 00000+0 -10243-3 0 9992 2 32953 82.5050 358.7005 0019060 325.6873 34.2975 12.43178854819047 KKS-1 (KISEKI) 1 33499U 09002H 26162.85928291 .00001126 00000+0 14508-3 0 9990 2 33499 98.1193 85.2170 0006819 316.1824 43.8847 14.83110411935402 SWISSCUBE 1 35932U 09051B 26162.21632552 .00000804 00000+0 16844-3 0 9997 2 35932 98.4041 70.0006 0005629 224.4191 135.6559 14.62470076888283 BEESAT-1 1 35933U 09051C 26162.70183136 .00000710 00000+0 15245-3 0 9991 2 35933 98.3970 70.1415 0003979 238.6332 121.4479 14.61711768888389 ITUPSAT1 1 35935U 09051E 26162.20832686 .00000614 00000+0 13683-3 0 9996 2 35935 98.4055 68.8386 0006132 256.4621 103.5895 14.60431670887865 XIWANG-1 (HOPE-1) 1 36122U 09072B 26162.84794473 .00000142 00000+0 48878-3 0 9999 2 36122 100.4019 116.7650 0006819 244.7069 115.3338 13.16439429792300 O/OREOS (USA 219) 1 37224U 10062C 26162.97248695 .00001959 00000+0 19066-3 0 9992 2 37224 71.9709 92.1509 0012422 74.4457 285.8084 14.93721984115865 JUGNU 1 37839U 11058B 26161.86742604 .00000399 00000+0 68784-4 0 9995 2 37839 19.9621 346.8221 0018563 6.6957 22.8320 14.13775053758139 SRMSAT 1 37841U 11058D 26162.51581192 .00000355 00000+0 48954-4 0 9993 2 37841 19.9715 93.7945 0011909 141.4141 27.1536 14.11574372757019 STRAND-1 1 39090U 13009E 26162.48626012 .00000258 00000+0 10129-3 0 9990 2 39090 98.3921 342.8611 0007504 244.6927 115.3483 14.37160014696249 ZACUBE-1 (TSHEPISOSAT) 1 39417U 13066B 26162.80818086 .00003114 00000+0 24384-3 0 9998 2 39417 97.8084 125.1158 0040239 266.5236 93.1385 15.01156095679928 GOMX-1 1 39430U 13066Q 26162.94273889 .00002429 00000+0 36756-3 0 9998 2 39430 97.6493 3.7373 0130194 94.1785 267.4313 14.69442724669149 CUBEBUG-2 (LO-74) 1 39440U 13066AA 26162.77121378 .00003584 00000+0 33291-3 0 9999 2 39440 97.8899 111.7263 0058871 46.5267 314.0826 14.93717789676180 FUNCUBE-1 (AO-73) 1 39444U 13066AE 26162.55441071 .00005554 00000+0 34659-3 0 9992 2 39444 97.8262 133.8824 0035145 220.5848 139.2760 15.09420112678819 UWE-3 1 39446U 13066AG 26162.80152354 .00003900 00000+0 33652-3 0 9990 2 39446 97.8684 118.8390 0048431 339.1228 20.8015 14.96981046676775 UNISAT-6 1 40012U 14033C 26162.95619580 .00002620 00000+0 28435-3 0 9992 2 40012 97.7868 315.7608 0046405 86.0856 274.5665 14.88217877645380 DUCHIFAT-1 1 40021U 14033M 26162.90348570 .00096111 00000+0 10289-2 0 9990 2 40021 98.0478 221.3257 0003943 124.8208 235.3420 15.63537353654927 QB50P1 1 40025U 14033R 26162.94335838 .00007108 00000+0 35124-3 0 9995 2 40025 98.0964 173.7217 0007337 235.8215 124.2322 15.18181286652238 LILACSAT-2 1 40908U 15049K 26162.91862819 .00015855 00000+0 27188-3 0 9993 2 40908 97.4657 199.5600 0005270 270.3771 89.6877 15.51271283594932 FOX-1A (AO-85) 1 40967U 15058D 26162.71824684 .00002264 00000+0 20997-3 0 9995 2 40967 64.7758 295.9784 0130128 58.7261 302.6519 14.90943463112758 CAS-2T & KS-1Q 1 41847U 16066G 26162.76895627 .00001472 00000+0 21366-3 0 9994 2 41847 98.3821 238.5671 0342619 145.8677 216.5069 14.44676151504010 RADFXSAT (FOX-1B) 1 43017U 17073E 26162.58534500 .00008698 00000+0 38005-3 0 9999 2 43017 97.4718 29.9151 0150450 348.6412 11.1435 15.12626564464549 DIWATA-2B 1 43678U 18084H 26162.90149909 .00002655 00000+0 21608-3 0 9994 2 43678 98.1180 358.8808 0012213 187.2831 172.8216 15.00428452415420 ES'HAIL 2 1 43700U 18090A 26162.94982951 .00000160 00000+0 00000+0 0 9991 2 43700 0.0178 322.8967 0001570 154.1393 151.0085 1.00267802 27621 FOX-1CLIFF (AO-95) 1 43770U 18099N 26162.11310128 .00010727 00000+0 41211-3 0 9990 2 43770 97.4393 222.3819 0008613 20.0469 340.1107 15.26583130412292 ITASAT 1 43786U 18099AE 26162.94940616 .00006460 00000+0 31134-3 0 9991 2 43786 97.4035 214.5656 0012691 18.7421 341.4278 15.18991868412113 JY1SAT (JO-97) 1 43803U 18099AX 26162.74529905 .00016134 00000+0 50038-3 0 9996 2 43803 97.4133 225.5608 0004130 289.1564 70.9231 15.33481844412794 UWE-4 1 43880U 18111E 26162.77811530 .00033079 00000+0 68244-3 0 9992 2 43880 97.5852 90.9210 0006519 5.5235 354.6084 15.45791225409940 TIANYAN 01 1 44881U 19093C 26162.92897950 .00000073 00000+0 14290-4 0 9992 2 44881 97.7533 235.2892 0014978 102.3062 257.9831 14.86508498350630 RS-44 & BREEZE-KM R/B 1 44909U 19096E 26162.92339460 .00000030 00000+0 69758-4 0 9995 2 44909 82.5217 343.2034 0217940 156.4371 204.6900 12.79748770301672 SALSAT 1 46495U 20068K 26162.97803982 .00007008 00000+0 24606-3 0 9992 2 46495 97.8848 165.7257 0008496 329.8396 30.2352 15.29724756314566 XW-3 (CAS-9) 1 50466U 21131B 26162.98700262 .00000422 00000+0 14399-3 0 9996 2 50466 98.4973 255.4047 0005282 108.2451 251.9313 14.41352679234362 GREENCUBE (IO-117) 1 53109U 22080E 26152.46502029 -.00000003 00000+0 00000+0 0 9996 2 53109 70.1435 303.7143 0008869 293.3663 66.6064 6.42583280 91055 UMKA 1 (RS40S) 1 57172U 23091G 26162.89592818 .00005527 00000+0 25359-3 0 9999 2 57172 97.5058 221.6133 0014033 134.1825 226.0566 15.20756133163203 CUBESX-HSE 3 (RS42S) 1 57178U 23091N 26162.94566052 .00012430 00000+0 41545-3 0 9998 2 57178 97.5100 228.4667 0012137 110.7649 249.4893 15.31080586163623 MONITOR-3 (RS58S) 1 57180U 23091Q 26162.95862941 .00009513 00000+0 35293-3 0 9999 2 57180 97.5091 226.3661 0013098 116.8255 243.4325 15.27735150163491 MONITOR-4 (RS57S) 1 57182U 23091S 26162.93798003 .00009126 00000+0 33777-3 0 9991 2 57182 97.5085 226.3165 0013099 117.2390 243.0185 15.27824419163498 MONITOR-2 (RS39S) 1 57184U 23091U 26162.91056309 .00004709 00000+0 22881-3 0 9993 2 57184 97.5079 221.2272 0012568 127.1985 233.0398 15.18860563163154 SVYATOBOR 1 (RS60S) 1 57187U 23091X 26162.94658874 .00008245 00000+0 31793-3 0 9995 2 57187 97.5097 226.7345 0010911 110.0732 250.1682 15.26524550163517 VIZARD-METEO (RS38S) 1 57189U 23091Z 26162.93574340 .00015782 00000+0 45374-3 0 9995 2 57189 97.5099 232.3157 0008561 93.5503 266.6720 15.35857512163886 POLYTECH-UNIVERSE 3 (R*) 1 57191U 23091AB 26162.93846162 .00004318 00000+0 20861-3 0 9999 2 57191 97.5055 220.7597 0016555 143.5296 216.7069 15.19062128163152 UTMN 2 (RS27S) 1 57203U 23091AP 26162.90079718 .00011748 00000+0 38308-3 0 9995 2 57203 97.5096 230.0487 0009469 99.3925 260.8387 15.31920910163739 KUZGTU 1 (RS47S) 1 57217U 23091AV 26162.93214097 .00011588 00000+0 40382-3 0 9991 2 57217 97.5073 227.3588 0012347 114.2109 246.0423 15.29740183163578 SONATE-2 1 59112U 24043Q 26162.93769449 .00035538 00000+0 46836-3 0 9992 2 59112 97.5519 313.0138 0006785 213.3126 146.7703 15.58325832127076 MESAT1 1 60209U 24125G 26162.60005230 .00050616 00000+0 56470-3 0 9996 2 60209 97.2312 19.9579 0009060 224.7831 135.2697 15.62604296108693 OOV-CUBE (TUBSAT-30) 1 60240U 24128F 26162.59923854 .00001977 00000+0 15980-3 0 9990 2 60240 61.9950 245.0577 0045327 132.4986 227.9949 15.02751187105272 COLIBRI-S (RS67S) 1 61746U 24199M 26162.88920606 .00019611 00000+0 38283-3 0 9999 2 61746 97.3008 36.6963 0006339 304.5967 55.4685 15.47505263136596 HORS 3 (RS81S) 1 61753U 24199U 26162.94074353 .00034310 00000+0 51906-3 0 9993 2 61753 97.2993 38.6788 0003878 310.8700 49.2217 15.54608615136745 HORS 4 (RS82S) 1 61754U 24199V 26162.91695869 .00044174 00000+0 56304-3 0 9998 2 61754 97.2940 39.8224 0002986 294.4821 65.6124 15.59192624136827 ARCTICSAT 1 (RS74S) 1 61762U 24199AD 26162.94576005 .02117796 23634-5 12146-2 0 9992 2 61762 97.2834 46.9017 0009764 213.6727 146.3942 16.18914720137287 SIT-2086 1 61764U 24199AF 26162.91261262 .00032254 00000+0 52253-3 0 9990 2 61764 97.2949 39.1449 0004344 280.5583 79.5181 15.52722398133611 HYPERVIEW 1G (RS66S) 1 61772U 24199AP 26162.91686856 .00121988 00000+0 83293-3 0 9990 2 61772 97.2893 42.3753 0002626 248.9314 111.1670 15.74456154133842 ALTAIR (RS65S) 1 61779U 24199AW 26162.90361439 .00010238 00000+0 28509-3 0 9997 2 61779 97.3044 32.2899 0011608 332.4733 27.5895 15.36928011136308 ASRTU-1 (AO-123) 1 61781U 24199AY 26162.88690534 .00006895 00000+0 20107-3 0 9998 2 61781 97.3015 31.6060 0012832 334.9444 25.1175 15.35599579133111 SAMSAT-IONOSPHERE (RS7*) 1 61784U 24199BB 26162.91927799 .00041236 00000+0 56695-3 0 9990 2 61784 97.2962 38.6846 0006004 304.3709 55.6978 15.57163885136744 RTU MIREA 1 (RS51S) 1 61785U 24199BC 26162.89107427 .00054340 00000+0 65746-3 0 9993 2 61785 97.2953 39.4610 0005532 297.1840 62.8853 15.60510063133649 TEVEL2-4 1 63213U 25052D 26162.70463613 .00017902 00000+0 53861-3 0 9990 2 63213 97.3917 59.0886 0004732 113.7416 246.4323 15.34420215 69273 TEVEL2-5 1 63214U 25052E 26162.65930424 .00017637 00000+0 53362-3 0 9995 2 63214 97.3921 58.9918 0004616 115.2111 244.9611 15.34247244 69264 TEVEL2-6 1 63215U 25052F 26162.67150743 .00017453 00000+0 52870-3 0 9995 2 63215 97.3921 58.9890 0004505 114.2026 245.9689 15.34210437 69265 TEVEL2-1 1 63217U 25052H 26162.95960718 .00016082 00000+0 49545-3 0 9991 2 63217 97.3891 58.9077 0004509 123.4340 236.7334 15.33693147 69295 TEVEL2-3 1 63218U 25052J 26162.69346802 .00016740 00000+0 51483-3 0 9990 2 63218 97.3895 58.6629 0004464 124.0241 236.1426 15.33739822 69250 TEVEL2-2 1 63219U 25052K 26162.95994952 .00016262 00000+0 50083-3 0 9999 2 63219 97.3890 58.9106 0004449 123.8478 236.3189 15.33701780 69295 TEVEL2-9 1 63237U 25052AD 26162.66933141 .00015595 00000+0 51070-3 0 9995 2 63237 97.3955 58.0067 0007180 145.2035 214.9678 15.31729290 69183 TEVEL2-7 1 63238U 25052AE 26162.64384617 .00015266 00000+0 50453-3 0 9991 2 63238 97.3956 57.8996 0007384 146.6025 213.5683 15.31438086 69173 TEVEL2-8 1 63239U 25052AF 26162.65204075 .00015443 00000+0 51057-3 0 9990 2 63239 97.3954 57.8849 0007385 147.5513 212.6184 15.31421974 69176 INNOSAT 16 (RS92S7) 1 64878U 25155C 26162.95104108 .00004894 00000+0 19646-3 0 9999 2 64878 97.4555 130.0955 0009914 193.9777 166.1188 15.25401305 79877 GEOSCAN 6 (RS92S6) 1 64879U 25155D 26162.94980224 .00009224 00000+0 31942-3 0 9995 2 64879 97.4547 131.4815 0007650 179.7140 180.4106 15.30054302 79966 GEOSCAN 1 (RS92S1) 1 64880U 25155E 26162.95427445 .00009290 00000+0 31595-3 0 9996 2 64880 97.4543 131.6294 0007599 179.3261 180.7992 15.30640990 79970 239ALFEROV (RS61S) 1 64881U 25155F 26162.93134194 .00013531 00000+0 42902-3 0 9998 2 64881 97.4543 132.1503 0007296 176.0220 184.1081 15.32800136 80008 GEOSCAN 2 (RS92S2) 1 64890U 25155Q 26162.94888468 .00009600 00000+0 32368-3 0 9996 2 64890 97.4541 131.7745 0007478 165.6230 194.5225 15.30912736 79984 GEOSCAN 5 (RS92S5) 1 64891U 25155R 26162.92145619 .00013251 00000+0 41615-3 0 9991 2 64891 97.4536 132.2758 0005985 179.2793 180.8459 15.33118515 80014 GEOSCAN 4 (RS92S4) 1 64892U 25155S 26162.90617211 .00013475 00000+0 42115-3 0 9996 2 64892 97.4540 132.3073 0006031 179.3927 180.7323 15.33269613 80019 GEOSCAN 3 (RS92S3) 1 64893U 25155T 26162.91369492 .00016768 00000+0 49202-3 0 9995 2 64893 97.4529 132.7295 0005940 177.2108 182.9169 15.35221831 80040 INNOSAT 3 (RS92S0) 1 64894U 25155U 26162.93228627 .00034626 00000+0 77279-3 0 9990 2 64894 97.4477 134.3034 0005617 164.0525 196.0901 15.43461153 80154 KNACKSAT-2 1 67683U 98067XZ 26162.71234266 .00046941 00000+0 58268-3 0 9993 2 67683 51.6308 322.0071 0009845 191.1847 168.8928 15.59478995 19427